LPR6 EPKX-EPKX

Flight info

Callsign LPR6
Flight time 0h 1m
Altitude 2000
Route DCT
Aircraft EC35/L-S/C

Departure

Time 2026-05-05 18:53
Airport Kokotowie LPR HEMS Heliport (EPKX)

Arrival

Time 2026-05-05 18:54
Airport Kokotowie LPR HEMS Heliport (EPKX)
Time Latitude Longitude Altitude Speed Heading
2026-05-05 18:41 50.02238 20.07033 648 ft 0 kts 150°
2026-05-05 18:51 50.02237 20.07033 648 ft 0 kts 145°
2026-05-05 18:52 50.02246 20.07021 653 ft 3 kts 146°
2026-05-05 18:52 50.02248 20.07015 691 ft 1 kts 153°
2026-05-05 18:52 50.02242 20.07019 753 ft 3 kts 154°
2026-05-05 18:52 50.02261 20.06822 933 ft 38 kts 275°
2026-05-05 18:53 50.02463 20.06235 1157 ft 81 kts 287°
2026-05-05 18:53 50.02588 20.05313 1333 ft 89 kts 279°
2026-05-05 18:53 50.02720 20.04388 1471 ft 81 kts 276°
2026-05-05 18:54 50.02902 20.03213 1607 ft 60 kts 264°
2026-05-05 18:54 50.03036 20.02680 1498 ft 41 kts 270°
2026-05-05 18:54 50.03118 20.02337 1361 ft 27 kts 259°
2026-05-05 18:54 50.03166 20.02087 1303 ft 22 kts 272°
2026-05-05 18:55 50.03185 20.01765 1372 ft 49 kts 262°
2026-05-05 18:55 50.03320 20.00903 1216 ft 99 kts 279°
2026-05-05 18:55 50.03483 19.99824 1204 ft 105 kts 278°
2026-05-05 18:55 50.03626 19.98731 1310 ft 99 kts 276°
2026-05-05 18:56 50.03742 19.97692 1419 ft 94 kts 273°
2026-05-05 18:56 50.03793 19.97179 1469 ft 90 kts 271°
2026-05-05 18:56 50.03841 19.96617 1386 ft 98 kts 271°
2026-05-05 18:57 50.03925 19.95541 1361 ft 104 kts 271°
2026-05-05 18:57 50.04054 19.94441 1342 ft 99 kts 276°
2026-05-05 18:57 50.04215 19.93457 1400 ft 91 kts 279°
2026-05-05 18:57 50.04359 19.92491 1351 ft 96 kts 276°
2026-05-05 18:58 50.04488 19.91434 1297 ft 102 kts 275°
2026-05-05 18:58 50.04644 19.90318 1259 ft 106 kts 280°
2026-05-05 18:58 50.04845 19.89227 1249 ft 106 kts 280°
2026-05-05 18:58 50.05045 19.88132 1257 ft 105 kts 281°
2026-05-05 18:59 50.05212 19.87023 1297 ft 104 kts 275°
2026-05-05 18:59 50.05354 19.85896 1331 ft 105 kts 276°
2026-05-05 18:59 50.05476 19.84774 1460 ft 106 kts 275°
2026-05-05 18:59 50.05566 19.83676 1503 ft 111 kts 270°
2026-05-05 19:00 50.05667 19.82371 1466 ft 123 kts 272°
2026-05-05 19:00 50.05798 19.81022 1416 ft 132 kts 278°
2026-05-05 19:00 50.05975 19.79602 1391 ft 130 kts 273°
2026-05-05 19:00 50.06060 19.78236 1457 ft 123 kts 266°
2026-05-05 19:01 50.05909 19.77023 1704 ft 89 kts 243°
2026-05-05 19:01 50.05786 19.76354 1639 ft 43 kts 235°
2026-05-05 19:01 50.05673 19.76080 1129 ft 26 kts 221°
2026-05-05 19:01 50.05523 19.75760 1071 ft 36 kts 257°
2026-05-05 19:02 50.05485 19.75573 780 ft 4 kts 246°
2026-05-05 19:02 50.05492 19.75585 723 ft 4 kts 249°
2026-05-05 19:02 50.05501 19.75577 717 ft 0 kts 253°
2026-05-05 19:03 50.05502 19.75576 718 ft 1 kts 253°
2026-05-05 19:03 50.05506 19.75567 719 ft 2 kts 253°
2026-05-05 19:04 50.05512 19.75537 721 ft 1 kts 256°
2026-05-05 19:04 50.05512 19.75536 717 ft 0 kts 257°
2026-05-05 19:08 50.05511 19.75538 718 ft 1 kts 255°
2026-05-05 19:08 50.05509 19.75543 755 ft 3 kts 75°
2026-05-05 19:08 50.05537 19.75637 935 ft 19 kts 76°
2026-05-05 19:08 50.05607 19.75983 957 ft 49 kts 68°
2026-05-05 19:09 50.05756 19.76736 1013 ft 94 kts 71°
2026-05-05 19:09 50.05947 19.77756 1136 ft 104 kts 71°
2026-05-05 19:09 50.06162 19.78933 1189 ft 115 kts 70°
2026-05-05 19:09 50.06410 19.80161 1257 ft 125 kts 70°
2026-05-05 19:10 50.06625 19.81432 1444 ft 125 kts 78°
2026-05-05 19:10 50.06810 19.82823 1422 ft 139 kts 75°
2026-05-05 19:10 50.07067 19.84300 1311 ft 146 kts 72°
2026-05-05 19:10 50.07331 19.85739 1416 ft 133 kts 73°
2026-05-05 19:11 50.07600 19.87184 1328 ft 143 kts 71°
2026-05-05 19:11 50.07966 19.88559 1469 ft 133 kts 64°
2026-05-05 19:11 50.08358 19.89866 1321 ft 137 kts 61°
2026-05-05 19:11 50.08731 19.91197 1262 ft 133 kts 67°
2026-05-05 19:12 50.08978 19.92499 1285 ft 108 kts 70°
2026-05-05 19:12 50.09060 19.93281 1068 ft 48 kts 71°
2026-05-05 19:12 50.09089 19.93525 901 ft 6 kts 71°
2026-05-05 19:12 50.09099 19.93595 878 ft 12 kts 79°
2026-05-05 19:13 50.09111 19.93661 808 ft 1 kts 84°
2026-05-05 19:13 50.09111 19.93660 802 ft 0 kts 84°
2026-05-05 19:16 50.09077 19.93647 903 ft 4 kts 126°
2026-05-05 19:16 50.08992 19.93748 980 ft 26 kts 127°
2026-05-05 19:16 50.08789 19.94103 1193 ft 65 kts 129°
2026-05-05 19:16 50.08372 19.94786 1128 ft 102 kts 132°
2026-05-05 19:17 50.07886 19.95622 1151 ft 106 kts 133°
2026-05-05 19:17 50.07334 19.96463 1106 ft 116 kts 137°
2026-05-05 19:17 50.06743 19.97316 1175 ft 116 kts 133°
2026-05-05 19:17 50.06135 19.98198 1153 ft 126 kts 136°
2026-05-05 19:18 50.05553 19.99252 1117 ft 129 kts 125°
2026-05-05 19:18 50.05021 20.00303 1006 ft 129 kts 128°
2026-05-05 19:18 50.04438 20.01286 1061 ft 119 kts 135°
2026-05-05 19:18 50.03855 20.02197 1135 ft 114 kts 133°
2026-05-05 19:19 50.03350 20.03141 1183 ft 117 kts 122°
2026-05-05 19:19 50.02965 20.04252 1205 ft 114 kts 114°
2026-05-05 19:19 50.02687 20.05364 1116 ft 107 kts 104°
2026-05-05 19:19 50.02500 20.06370 923 ft 82 kts 103°
2026-05-05 19:20 50.02288 20.06967 719 ft 39 kts 124°
2026-05-05 19:20 50.02242 20.07029 650 ft 0 kts 131°